Location: Bessat
(45.8735°N, 1.9924°E)
Time: 22:59:53
(UTC+00:00)

RESURS DK-1 - Pass Details

Date: 11 May 2021
Orbit: 553 x 564 km, 69.9° (Epoch: 24 June)

Event Time Altitude Azimuth Distance (km) Brightness Sun altitude
Rises 22:57:08 0° 339° (NNW) 2,765 7.3 -24.9°
Reaches altitude 10° 22:59:33 10° 349° (N) 1,865 6.1 -25.0°
Maximum altitude 23:03:19 32° 54° (NE) 978 3.7 -25.2°
Enters shadow 23:03:33 32° 61° (ENE) 983 3.7 -25.2°
